TimeCST,TemperatureF,Dew PointF,Humidity,Sea Level PressureIn,VisibilityMPH,Wind Direction,Wind SpeedMPH,Gust SpeedMPH,PrecipitationIn,Events,Conditions,WindDirDegrees,DateUTC
12:53 AM,39.9,39.0,97,29.86,4.0,ESE,5.8,-,N/A,,Overcast,110,2012-12-09 06:53:00
1:53 AM,41.0,39.9,96,29.86,2.5,Calm,Calm,-,0.00,Rain,Light Rain,0,2012-12-09 07:53:00
2:08 AM,41.0,39.2,93,29.85,3.0,Calm,Calm,-,0.00,,Overcast,0,2012-12-09 08:08:00
2:16 AM,41.0,39.2,93,29.85,2.5,Calm,Calm,-,0.00,,Overcast,0,2012-12-09 08:16:00
2:53 AM,41.0,39.9,96,29.85,2.0,Calm,Calm,-,0.00,,Overcast,0,2012-12-09 08:53:00
3:15 AM,41.0,39.2,93,29.84,1.5,Calm,Calm,-,N/A,,Overcast,0,2012-12-09 09:15:00
3:53 AM,41.0,39.9,96,29.84,1.2,Calm,Calm,-,N/A,,Overcast,0,2012-12-09 09:53:00
4:53 AM,41.0,39.9,96,29.85,2.0,Calm,Calm,-,0.01,,Overcast,0,2012-12-09 10:53:00
5:12 AM,41.0,39.2,93,29.84,3.0,West,3.5,-,N/A,,Overcast,270,2012-12-09 11:12:00
5:53 AM,41.0,39.9,96,29.88,2.0,WNW,4.6,-,0.00,Rain,Light Rain,290,2012-12-09 11:53:00
6:43 AM,41.0,39.2,93,29.88,3.0,NW,8.1,-,0.02,,Overcast,320,2012-12-09 12:43:00
6:53 AM,41.0,39.9,96,29.89,3.0,NNW,8.1,-,0.02,,Overcast,330,2012-12-09 12:53:00
7:53 AM,41.0,39.9,96,29.90,4.0,NW,11.5,-,N/A,,Overcast,320,2012-12-09 13:53:00
8:14 AM,41.0,39.2,93,29.89,2.5,NW,10.4,-,N/A,,Overcast,320,2012-12-09 14:14:00
8:42 AM,41.0,39.2,93,29.90,3.0,NW,8.1,-,N/A,,Overcast,320,2012-12-09 14:42:00
8:53 AM,41.0,39.9,96,29.91,2.5,NW,9.2,-,N/A,,Overcast,320,2012-12-09 14:53:00
9:15 AM,41.0,39.2,93,29.90,3.0,NW,12.7,-,N/A,,Overcast,320,2012-12-09 15:15:00
9:46 AM,41.0,37.4,87,29.92,6.0,NNW,12.7,-,N/A,,Overcast,330,2012-12-09 15:46:00
9:48 AM,41.0,37.4,87,29.92,6.0,NNW,12.7,-,N/A,,Overcast,330,2012-12-09 15:48:00
9:53 AM,42.1,37.9,85,29.94,6.0,NW,12.7,-,N/A,,Overcast,320,2012-12-09 15:53:00
10:53 AM,43.0,34.0,71,29.94,10.0,NNW,23.0,31.1,N/A,,Scattered Clouds,340,2012-12-09 16:53:00
11:10 AM,42.8,33.8,70,29.92,10.0,NNW,21.9,-,N/A,,Mostly Cloudy,330,2012-12-09 17:10:00
11:53 AM,42.1,30.9,65,29.96,10.0,NW,20.7,25.3,N/A,,Scattered Clouds,310,2012-12-09 17:53:00
12:53 PM,39.9,25.0,55,29.98,10.0,NW,21.9,29.9,N/A,,Overcast,320,2012-12-09 18:53:00
1:53 PM,37.0,21.0,52,29.98,10.0,WNW,23.0,29.9,N/A,,Clear,300,2012-12-09 19:53:00
2:53 PM,33.1,17.1,52,30.00,10.0,WNW,24.2,-,N/A,,Clear,300,2012-12-09 20:53:00
3:53 PM,30.0,12.9,49,30.03,10.0,NW,20.7,26.5,N/A,,Clear,310,2012-12-09 21:53:00
4:53 PM,28.0,12.0,51,30.06,10.0,NW,18.4,-,N/A,,Overcast,320,2012-12-09 22:53:00
5:53 PM,27.0,10.9,51,30.07,10.0,NW,16.1,-,N/A,,Clear,320,2012-12-09 23:53:00
6:53 PM,26.1,12.0,55,30.10,10.0,NW,19.6,26.5,N/A,,Clear,320,2012-12-10 00:53:00
7:45 PM,24.8,10.4,54,30.09,10.0,NW,16.1,25.3,N/A,,Mostly Cloudy,320,2012-12-10 01:45:00
7:53 PM,25.0,10.9,55,30.12,10.0,NW,12.7,-,N/A,,Overcast,320,2012-12-10 01:53:00
8:26 PM,24.8,8.6,50,30.10,10.0,NNW,21.9,29.9,N/A,,Overcast,330,2012-12-10 02:26:00
8:53 PM,23.0,9.0,55,30.14,10.0,NW,21.9,26.5,N/A,,Overcast,320,2012-12-10 02:53:00
9:53 PM,21.9,9.0,58,30.14,10.0,NNW,21.9,29.9,N/A,,Overcast,330,2012-12-10 03:53:00
10:53 PM,21.9,10.0,60,30.14,10.0,NW,20.7,25.3,N/A,,Overcast,320,2012-12-10 04:53:00
11:53 PM,21.0,9.0,60,30.14,10.0,NW,24.2,28.8,N/A,,Overcast,310,2012-12-10 05:53:00